Location: Newark
(21.1200°N, 73.4000°E)
Time: 18:05:25
(UTC+00:00)

Explorer 11/Cluster Stage 4 - Pass Details

Date: 22 January 2020
Orbit: 467 x 1259 km, 28.8° (Epoch: 23 February)

Event Time Altitude Azimuth Distance (km) Brightness Sun altitude
Rises 07:07:15 0° 218° (SW) 4,119 10.7 49.0°
Reaches altitude 10° 07:10:29 10° 208° (SSW) 3,201 10.4 49.1°
Maximum altitude 07:17:30 32° 149° (SSE) 2,016 10.0 49.1°
Drops below altitude 10° 07:24:21 10° 90° (E) 3,129 9.8 49.1°
Sets 07:27:27 0° 81° (E) 4,015 10.1 49.0°
